[[{"header":{"parameterUnit":"m.s-1","parameterCategory":1,"la1":30.2991,"la2":30.254,"lo1":-89.0895,"lo2":-89.0444,"dy":0.0017,"dx":0.0017,"nx":28,"ny":28,"refTime":"2025-06-11T03:00:00:Z","depth":0,"parameterNumber":2,"parameterNumberName":"U-component_of_WINDS"},"data":[0,0,0,0,0,0,0,0,0,0,0,0,0,0,0,0,0,0,0,0,0,0,0,0,0,0,0,0,0,0,0,0,0,0,0,0,0,0,0,0,0,0,0,0,0,0,0,0,0,0,0,0,0,0,0,0,0,0,-1.333,-1.333,0,-1.3284,-1.3284,-1.3283,-1.322,-1.3219,-1.3218,-1.3217,-1.3171,-1.317,-1.317,0,0,0,0,0,0,0,0,0,0,0,0,0,-1.3364,-1.3364,-1.333,-1.333,-1.3329,-1.3284,-1.3284,-1.3283,-1.322,-1.3219,-1.3218,-1.3217,-1.3171,-1.317,-1.317,0,0,0,0,0,0,0,0,0,0,0,0,0,-1.3337,-1.3364,-1.333,-1.3293,-1.3289,-1.3284,-1.3284,-1.3283,-1.3221,-1.3219,-1.3218,-1.3216,-1.3171,-1.317,-1.317,-1.3199,0,0,-1.3169,-1.3169,0,0,0,0,0,0,0,0,-1.3339,-1.3336,-1.3299,-1.3295,-1.3291,-1.3256,-1.3278,-1.3255,-1.3221,-1.3247,-1.3217,-1.3215,-1.32,-1.3197,-1.3192,-1.3197,-1.3195,-1.3169,-1.3168,-1.3168,-1.3168,0,0,0,0,0,0,0,-1.3341,-1.3338,-1.3312,-1.3298,-1.3293,-1.3278,-1.3272,-1.3274,-1.3233,-1.3244,-1.324,-1.3235,-1.3198,-1.3193,-1.3191,-1.3194,-1.3169,-1.3168,-1.3168,-1.3168,-1.3219,-1.3221,0,0,0,0,0,0,-1.3348,-1.334,-1.3313,-1.3311,-1.3311,-1.3279,-1.3272,-1.3269,-1.3233,-1.3226,-1.3236,-1.3232,-1.3194,-1.3191,-1.3189,-1.322,-1.3168,-1.3168,-1.3168,-1.3218,-1.322,-1.3221,0,0,0,0,0,0,-1.3349,-1.3346,-1.3315,-1.3324,-1.3319,-1.328,-1.3277,-1.3269,-1.3264,-1.3227,-1.3219,-1.3239,-1.3193,-1.3189,-1.3197,-1.3217,-1.3168,-1.3167,-1.3216,-1.3218,-1.3221,-1.3282,0,0,0,0,0,0,-1.335,-1.3347,-1.3358,-1.3324,-1.3318,-1.3324,-1.3278,-1.3269,-1.3263,-1.3257,-1.3227,-1.322,-1.3191,-1.3198,-1.3196,-1.3216,-1.3167,-1.3214,-1.3217,-1.322,-1.3278,-1.3286,-1.3294,0,0,0,0,0,-1.3352,-1.3377,-1.3359,-1.3356,-1.3331,-1.3326,-1.3322,-1.3288,-1.3265,-1.3275,-1.3252,-1.3221,-1.3215,-1.3199,-1.3197,-1.3217,-1.3212,-1.3216,-1.322,-1.3275,-1.3285,-1.3293,0,0,0,0,0,0,-1.3415,-1.3372,-1.3351,-1.3367,-1.335,-1.3315,-1.3327,-1.33,-1.329,-1.3285,-1.3243,-1.3237,-1.3249,-1.3234,-1.3216,-1.3242,-1.3209,-1.3213,-1.3252,-1.3261,-1.3269,-1.3272,-1.3167,0,0,0,0,0,-1.343,-1.3429,-1.3393,-1.341,-1.3403,-1.3367,-1.3363,-1.3338,-1.3319,-1.3312,-1.3289,-1.3272,-1.3266,-1.3263,-1.3255,-1.3276,-1.3268,-1.3288,-1.3296,-1.3302,-1.3306,-1.3314,-1.3322,-1.3233,-1.3233,-1.3233,0,0,-1.3463,-1.3439,-1.3441,-1.3422,-1.3406,-1.3406,-1.3361,-1.3363,-1.3362,-1.3312,-1.3317,-1.33,-1.3278,-1.3292,-1.3297,-1.3279,-1.3329,-1.3307,-1.3313,-1.3312,-1.3319,-1.3327,-1.3335,-1.3236,-1.3235,-1.3235,0,0,-1.3521,-1.3504,-1.3516,-1.3501,-1.3477,-1.3453,-1.3456,-1.3425,-1.3411,-1.3415,-1.3378,-1.3376,-1.3368,-1.3353,-1.3345,-1.3397,-1.3369,-1.3396,-1.3436,-1.3445,-1.3452,-1.3458,-1.3475,-1.3482,-1.34,-1.34,-1.34,0,-1.3564,-1.3562,-1.3526,-1.3529,-1.3521,-1.3476,-1.3488,-1.3475,-1.3451,-1.3446,-1.3427,-1.3414,-1.3396,-1.3406,-1.3418,-1.3414,-1.3415,-1.3399,-1.3454,-1.3459,-1.3464,-1.3481,-1.3488,-1.3403,-1.3403,-1.3402,-1.3402,0,-1.3616,-1.3615,-1.3628,-1.3604,-1.3598,-1.3606,-1.357,-1.3568,-1.3544,-1.3522,-1.3527,-1.3504,-1.3491,-1.3491,-1.3468,-1.3497,-1.3487,-1.3461,-1.3427,-1.3477,-1.3492,-1.3498,-1.3408,-1.3407,-1.3406,-1.3405,0,0,-1.3712,-1.3668,-1.3674,-1.3662,-1.3633,-1.3631,-1.3637,-1.3624,-1.3622,-1.3607,-1.361,-1.3603,-1.3579,-1.357,-1.3545,-1.3553,-1.3594,-1.3526,-1.3525,-1.3539,-1.3624,-1.3642,-1.365,-1.3576,-1.3577,-1.3578,-1.3625,0,-1.3764,-1.3771,-1.3738,-1.3753,-1.3752,-1.3709,-1.3713,-1.3696,-1.3675,-1.3671,-1.3648,-1.3643,-1.3612,-1.3606,-1.3612,-1.3588,-1.3611,-1.3584,-1.3577,-1.3578,-1.3583,-1.3658,-1.3678,-1.3724,-1.3631,-1.3632,-1.3632,0,-1.3826,-1.3813,-1.3828,-1.3797,-1.3795,-1.38,-1.3785,-1.3781,-1.376,-1.3745,-1.3734,-1.3705,-1.3707,-1.3676,-1.3678,-1.3661,-1.3657,-1.3644,-1.3645,-1.3643,-1.3608,-1.3657,-1.3738,-1.3745,-1.3641,-1.3641,-1.364,0,-1.3893,-1.388,-1.3887,-1.3879,-1.3843,-1.3848,-1.3833,-1.381,-1.3804,-1.3791,-1.3786,-1.3774,-1.3767,-1.3758,-1.3726,-1.3706,-1.3732,-1.3698,-1.3719,-1.3719,-1.3726,-1.3725,-1.3806,-1.3724,-1.3724,-1.3724,-1.3724,0,-1.3954,-1.3965,-1.3917,-1.3921,-1.3932,-1.3894,-1.3905,-1.3886,-1.3867,-1.3866,-1.3829,-1.3829,-1.3787,-1.3783,-1.3758,-1.3763,-1.3761,-1.3748,-1.3741,-1.375,-1.3752,-1.3746,-1.3742,-1.3726,-1.3726,-1.3725,-1.3725,0,-1.4031,-1.4,-1.4004,-1.397,-1.3962,-1.3971,-1.3941,-1.3944,-1.3921,-1.3921,-1.3918,-1.3882,-1.3875,-1.3842,-1.3827,-1.381,-1.3824,-1.3811,-1.3831,-1.3827,-1.3849,-1.3847,-1.3928,-1.3937,-1.385,-1.3851,-1.3852,0,-1.4072,-1.4079,-1.4045,-1.4042,-1.4029,-1.4025,-1.4018,-1.3981,-1.3976,-1.3952,-1.3957,-1.3947,-1.3936,-1.3927,-1.3899,-1.3887,-1.3873,-1.3903,-1.3871,-1.3881,-1.3872,-1.3872,-1.3872,-1.3909,-1.391,-1.3911,-1.3912,0,-1.4147,-1.4131,-1.4123,-1.4109,-1.4102,-1.4089,-1.4075,-1.4074,-1.4033,-1.4029,-1.4021,-1.4013,-1.3997,-1.3987,-1.3971,-1.3955,-1.3927,-1.3922,-1.3926,-1.3936,-1.3947,-1.394,-1.3849,-1.392,-1.3919,-1.3919,-1.3918,-1.3918,-1.4206,-1.421,-1.4187,-1.4179,-1.4164,-1.4151,-1.4151,-1.4128,-1.412,-1.4105,-1.4083,-1.4078,-1.4056,-1.4031,-1.4017,-1.4012,-1.3996,-1.4002,-1.4004,-1.4006,-1.401,-1.3948,-1.4009,-1.4009,-1.4009,-1.4009,-1.4008,0,-1.4279,-1.4261,-1.4254,-1.4235,-1.4228,-1.4202,-1.4184,-1.418,-1.4176,-1.4158,-1.4148,-1.4139,-1.4129,-1.41,-1.4087,-1.4088,-1.4075,-1.4086,-1.4085,-1.4082,-1.4026,-1.4023,-1.4097,-1.4097,-1.4097,-1.4097,-1.4097,-1.4097,-1.4315,-1.432,-1.4302,-1.4298,-1.4281,-1.4275,-1.4267,-1.4255,-1.424,-1.4231,-1.4222,-1.4204,-1.4181,-1.4166,-1.4155,-1.4147,-1.4144,-1.4159,-1.4147,-1.4095,-1.4086,-1.4078,-1.4075,-1.4159,-1.4159,-1.4203,-1.4203,-1.4204]},{"header":{"parameterUnit":"m.s-1","parameterCategory":1,"la1":30.2991,"la2":30.254,"lo1":-89.0895,"lo2":-89.0444,"dy":0.0017,"dx":0.0017,"nx":28,"ny":28,"refTime":"2025-06-11T03:00:00:Z","depth":0,"parameterNumber":3,"parameterNumberName":"V-component_of_WINDS"},"data":[0,0,0,0,0,0,0,0,0,0,0,0,0,0,0,0,0,0,0,0,0,0,0,0,0,0,0,0,0,0,0,0,0,0,0,0,0,0,0,0,0,0,0,0,0,0,0,0,0,0,0,0,0,0,0,0,0,0,3.5292,3.5293,0,3.539,3.5392,3.5393,3.5449,3.5449,3.5449,3.5449,3.5548,3.555,3.5553,0,0,0,0,0,0,0,0,0,0,0,0,0,3.5153,3.5155,3.5292,3.5293,3.5294,3.539,3.5392,3.5393,3.5449,3.5449,3.5449,3.545,3.5547,3.555,3.5553,0,0,0,0,0,0,0,0,0,0,0,0,0,3.5228,3.5156,3.5292,3.5334,3.5339,3.539,3.5392,3.5393,3.5449,3.5449,3.5449,3.545,3.5546,3.555,3.5553,3.557,0,0,3.5564,3.5566,0,0,0,0,0,0,0,0,3.5224,3.5233,3.5327,3.5331,3.5337,3.5408,3.5379,3.5452,3.5449,3.5407,3.5449,3.545,3.5501,3.5508,3.5526,3.5574,3.5578,3.5565,3.5567,3.5568,3.557,0,0,0,0,0,0,0,3.5219,3.5229,3.5331,3.5328,3.5334,3.5348,3.5359,3.5393,3.5451,3.5411,3.5415,3.5426,3.5504,3.5522,3.5529,3.558,3.5565,3.5568,3.557,3.5572,3.565,3.5649,0,0,0,0,0,0,3.5207,3.5225,3.5328,3.5334,3.528,3.535,3.5363,3.5385,3.5451,3.5461,3.5425,3.5428,3.5516,3.5524,3.5532,3.5558,3.5568,3.5572,3.5574,3.565,3.565,3.5649,0,0,0,0,0,0,3.5204,3.5215,3.5324,3.5281,3.5295,3.5352,3.5376,3.5386,3.5405,3.5462,3.5472,3.5434,3.5516,3.5527,3.5561,3.5562,3.5574,3.5577,3.565,3.565,3.5649,3.5607,0,0,0,0,0,0,3.5199,3.5214,3.522,3.528,3.5298,3.535,3.5376,3.5388,3.5411,3.5416,3.5473,3.5482,3.5518,3.5555,3.5564,3.5567,3.558,3.565,3.565,3.565,3.5609,3.5606,3.5603,0,0,0,0,0,3.5194,3.5203,3.522,3.5233,3.5307,3.535,3.536,3.5401,3.5411,3.5419,3.5456,3.5481,3.556,3.5558,3.5569,3.5573,3.565,3.565,3.565,3.561,3.5606,3.5603,0,0,0,0,0,0,3.5141,3.5212,3.5232,3.5261,3.5299,3.536,3.537,3.5395,3.5431,3.5434,3.5482,3.5495,3.5524,3.5552,3.5548,3.5594,3.5608,3.561,3.5574,3.5571,3.5568,3.5561,3.5583,0,0,0,0,0,3.5133,3.5162,3.5223,3.5242,3.5261,3.5312,3.5332,3.5361,3.5403,3.5419,3.5458,3.5497,3.5532,3.5553,3.5587,3.5613,3.5628,3.5622,3.5619,3.5616,3.5617,3.5636,3.5634,3.5649,3.5649,3.5649,0,0,3.5115,3.5158,3.5173,3.5233,3.5266,3.5296,3.5325,3.5355,3.5378,3.5423,3.5458,3.5488,3.5535,3.5566,3.5581,3.559,3.5617,3.5616,3.5613,3.5616,3.5635,3.5634,3.5632,3.5648,3.5648,3.5648,0,0,3.51,3.5135,3.5156,3.519,3.524,3.5275,3.528,3.5338,3.536,3.5396,3.5432,3.5459,3.5517,3.555,3.5573,3.5574,3.5599,3.5584,3.5568,3.5586,3.5585,3.5584,3.5585,3.5585,3.5585,3.5584,3.5584,0,3.5072,3.5119,3.5164,3.5193,3.5219,3.5263,3.5286,3.5316,3.5374,3.5391,3.54,3.5475,3.551,3.555,3.555,3.5568,3.5576,3.5577,3.5581,3.5581,3.5581,3.5583,3.5583,3.5582,3.5583,3.5583,3.5583,0,3.5083,3.5115,3.5127,3.5184,3.5212,3.5237,3.5286,3.5308,3.5335,3.5369,3.5406,3.545,3.5495,3.5506,3.5532,3.5551,3.5555,3.5572,3.5587,3.5577,3.558,3.5581,3.5579,3.558,3.5581,3.5581,0,0,3.5035,3.512,3.5123,3.5151,3.5211,3.5237,3.5265,3.5311,3.533,3.5369,3.5395,3.5444,3.5461,3.5489,3.5519,3.5534,3.5534,3.5549,3.5551,3.5546,3.5559,3.5546,3.5547,3.5551,3.5551,3.5551,3.5556,0,3.5029,3.5083,3.5126,3.5163,3.5194,3.5238,3.5263,3.5303,3.5336,3.5367,3.5404,3.5438,3.5457,3.5475,3.5491,3.553,3.5537,3.553,3.5575,3.5576,3.5563,3.5548,3.5534,3.5536,3.5557,3.5557,3.5557,0,3.5029,3.5069,3.511,3.5171,3.5185,3.5207,3.5254,3.5283,3.533,3.5353,3.5385,3.5417,3.545,3.5462,3.5509,3.5503,3.5524,3.5546,3.5547,3.5553,3.5566,3.5554,3.5538,3.5538,3.5559,3.5559,3.5559,0,3.4992,3.5056,3.509,3.5112,3.5182,3.5197,3.5227,3.5274,3.53,3.5341,3.5358,3.5401,3.5425,3.5458,3.5501,3.5506,3.5544,3.5559,3.5564,3.5563,3.557,3.5569,3.5557,3.5583,3.5583,3.5582,3.5582,0,3.4981,3.5005,3.5075,3.5095,3.5124,3.5173,3.52,3.5233,3.5276,3.5304,3.5344,3.537,3.5425,3.5458,3.5492,3.5526,3.5536,3.5556,3.5565,3.5553,3.5551,3.5568,3.5569,3.5583,3.5583,3.5583,3.5583,0,3.4944,3.4991,3.5031,3.5096,3.5113,3.5131,3.5186,3.5208,3.5244,3.528,3.5291,3.5347,3.5388,3.5435,3.549,3.5513,3.5546,3.5558,3.553,3.5535,3.5538,3.5538,3.5537,3.5541,3.5562,3.5562,3.5562,0,3.4934,3.4954,3.5022,3.5044,3.5073,3.5109,3.5136,3.5186,3.5212,3.5269,3.5285,3.5329,3.5367,3.543,3.5476,3.552,3.5534,3.5531,3.5541,3.5529,3.5535,3.5534,3.5537,3.5528,3.5528,3.5527,3.5527,0,3.4913,3.4936,3.4974,3.5021,3.5052,3.5091,3.5132,3.5148,3.5206,3.5234,3.5277,3.5307,3.5365,3.5409,3.5459,3.549,3.5518,3.5524,3.5528,3.5516,3.5499,3.551,3.5524,3.5523,3.5524,3.5524,3.5524,3.5524,3.489,3.4911,3.4962,3.5004,3.504,3.5078,3.5102,3.5143,3.518,3.5232,3.5259,3.5302,3.5351,3.5421,3.5452,3.5486,3.5496,3.55,3.5502,3.5502,3.55,3.5493,3.5495,3.5495,3.5496,3.5496,3.5496,0,3.4872,3.4908,3.4946,3.5002,3.5035,3.5061,3.5108,3.5134,3.5171,3.5215,3.5253,3.5303,3.5347,3.5397,3.5444,3.5462,3.5477,3.5473,3.5472,3.5479,3.5488,3.5481,3.546,3.546,3.546,3.546,3.546,3.546,3.4867,3.4904,3.4933,3.4989,3.5025,3.5068,3.5093,3.5129,3.5164,3.5219,3.5256,3.5289,3.5336,3.5387,3.5428,3.5442,3.5458,3.545,3.5468,3.5475,3.5478,3.5481,3.5475,3.5453,3.5453,3.5457,3.5457,3.5457]}]]